Weather History for Jackson, MS

Change the Weather History Date:

Sunday, July 7, 2013

  Actual Average Record
Temperature  
Mean Temperature 82 °F 82 °F  
Max Temperature 91 °F 92 °F 105 °F (1902)
Min Temperature 73 °F 71 °F 55 °F (1972)
Degree Days  
Heating Degree Days 0 0  
Month to date heating degree days 0 0  
Since 1 June heating degree days 0 0  
Since 1 July heating degree days 0 0  
Cooling Degree Days 17 16  
Month to date cooling degree days 89 112  
Year to date cooling degree days 854 892  
Since 1 June cooling degree days 536 534  
Growing Degree Days 32 (Base 50)    
Moisture  
Dew Point 71 °F    
Average Humidity 73    
Maximum Humidity 93    
Minimum Humidity 52    
Precipitation  
Precipitation 0.00 in 0.16 in 2.07 in (1946)
Month to date precipitation 0.02 1.10  
Year to date precipitation 38.06 29.33  
Sea Level Pressure  
Sea Level Pressure 30.05 in    
Wind  
Wind Speed 4 mph (SE)    
Max Wind Speed 15 mph    
Max Gust Speed 21 mph    
Visibility 10 miles    
Events      
T = Trace of Precipitation, MM = Missing Value Source: NWS Daily Summary

Daily Weather History Graph

Daily Weather History Graph

Search for Another Location

Airport:

Trip Planner

Search our weather history database for the weather conditions in past years. The results will help you decide how hot, cold, wet, or windy it might be!

Date:

Astronomy

Jul. 07, 2013 Rise Set
Actual Time 5:59 AM CDT 8:10 PM CDT
Civil Twilight 5:31 AM CDT 8:38 PM CDT
Nautical Twilight 4:57 AM CDT 9:12 PM CDT
Astronomical Twilight 4:20 AM CDT 9:49 PM CDT
Moon 5:32 AM CDT (7/7) 7:38 PM CDT (7/7)
Length of Visible Light 15h 06m
Length of Day
14h 10m
Waning Crescent, 0% of the Moon is Illuminated
Jul 7
Waning Crescent
Jul 8
New
Jul 15
First Quarter
Jul 22
Full
Jul 29
Last Quarter

Hourly Weather History & Observations

Time (CDT) Temp. Heat Index Dew Point Humidity Pressure Visibility Wind Dir Wind Speed Gust Speed Precip Events Conditions
12:54 AM 73.9 °F - 72.0 °F 93% 30.02 in 10.0 mi SE 3.5 mph - N/A   Clear
1:54 AM 73.9 °F - 72.0 °F 93% 30.01 in 10.0 mi SE 4.6 mph - N/A   Clear
2:20 AM 73.4 °F - 71.6 °F 94% 30.03 in 10.0 mi SE 4.6 mph - N/A   Mostly Cloudy
2:27 AM 73.4 °F - 71.6 °F 94% 30.03 in 10.0 mi SE 4.6 mph - N/A   Scattered Clouds
2:41 AM 73.4 °F - 71.6 °F 94% 30.03 in 10.0 mi SE 3.5 mph - N/A   Scattered Clouds
2:49 AM 73.4 °F - 71.6 °F 94% 30.03 in 10.0 mi SE 4.6 mph - N/A   Partly Cloudy
2:54 AM 73.0 °F - 71.1 °F 93% 30.01 in 10.0 mi SE 4.6 mph - N/A   Scattered Clouds
3:12 AM 73.4 °F - 71.6 °F 94% 30.03 in 10.0 mi SE 5.8 mph - N/A   Mostly Cloudy
3:54 AM 73.9 °F - 71.1 °F 91% 30.02 in 10.0 mi SE 4.6 mph - N/A   Overcast
4:18 AM 73.4 °F - 71.6 °F 94% 30.04 in 10.0 mi SE 4.6 mph - 0.01 in   Overcast
4:54 AM 73.9 °F - 71.1 °F 91% 30.03 in 10.0 mi Calm Calm - 0.01 in   Overcast
5:54 AM 73.0 °F - 71.1 °F 93% 30.03 in 10.0 mi ESE 3.5 mph - N/A   Overcast
6:54 AM 73.9 °F - 71.1 °F 91% 30.04 in 6.0 mi SE 3.5 mph - N/A   Mostly Cloudy
7:54 AM 75.9 °F - 71.1 °F 85% 30.06 in 10.0 mi SE 5.8 mph - N/A   Overcast
8:54 AM 75.9 °F - 70.0 °F 82% 30.08 in 10.0 mi SSE 8.1 mph - N/A   Overcast
9:50 AM 77.0 °F - 69.8 °F 78% 30.10 in 10.0 mi Calm Calm - N/A   Overcast
9:54 AM 78.1 °F - 70.0 °F 76% 30.08 in 10.0 mi Calm Calm - N/A   Overcast
10:54 AM 81.0 °F 84.4 °F 70.0 °F 69% 30.08 in 10.0 mi Calm Calm - N/A   Overcast
11:15 AM 80.6 °F 83.9 °F 69.8 °F 70% 30.09 in 10.0 mi Variable 3.5 mph - N/A   Overcast
11:54 AM 82.0 °F 85.9 °F 70.0 °F 67% 30.07 in 10.0 mi Calm Calm - N/A   Overcast
12:54 PM 86.0 °F 90.7 °F 70.0 °F 59% 30.06 in 10.0 mi Calm Calm - N/A   Scattered Clouds
1:54 PM 86.0 °F 91.5 °F 71.1 °F 61% 30.04 in 10.0 mi South 4.6 mph - N/A   Scattered Clouds
2:54 PM 87.1 °F 92.0 °F 70.0 °F 57% 30.03 in 10.0 mi Calm Calm - N/A   Overcast
3:54 PM 91.0 °F 97.6 °F 71.1 °F 52% 30.02 in 10.0 mi Variable 3.5 mph - N/A   Mostly Cloudy
4:54 PM 88.0 °F 92.9 °F 70.0 °F 55% 30.01 in 10.0 mi Calm Calm - N/A   Scattered Clouds
5:54 PM 87.1 °F 93.6 °F 72.0 °F 61% 30.00 in 10.0 mi NE 5.8 mph - N/A   Scattered Clouds
6:54 PM 84.9 °F 92.1 °F 73.9 °F 69% 30.02 in 10.0 mi East 4.6 mph - N/A   Overcast
7:54 PM 82.9 °F 90.2 °F 75.0 °F 77% 30.04 in 10.0 mi SSE 5.8 mph - N/A   Mostly Cloudy
8:54 PM 78.1 °F - 72.0 °F 81% 30.06 in 10.0 mi South 9.2 mph - N/A   Overcast
9:54 PM 77.0 °F - 73.0 °F 88% 30.08 in 10.0 mi South 8.1 mph - N/A   Overcast
10:11 PM 75.2 °F - 71.6 °F 89% 30.10 in 10.0 mi South 10.4 mph - N/A   Mostly Cloudy
10:54 PM 75.9 °F - 72.0 °F 87% 30.09 in 10.0 mi South 6.9 mph - N/A   Scattered Clouds
11:01 PM 75.2 °F - 71.6 °F 89% 30.11 in 10.0 mi South 6.9 mph - N/A   Mostly Cloudy
11:19 PM 75.2 °F - 71.6 °F 89% 30.10 in 10.0 mi SSE 6.9 mph - N/A   Scattered Clouds
11:54 PM 75.9 °F - 72.0 °F 87% 30.09 in 10.0 mi South 11.5 mph - N/A   Clear